Location: Eschertshofen
(49.3064°N, 11.5756°E)
Time: 12:47:20
(UTC+00:00)

CZ-4 R/B - Pass Details

Date: 18 September 2020
Orbit: 530 x 600 km, 97.7° (Epoch: 24 October)

Event Time Altitude Azimuth Distance (km) Brightness Sun altitude
Rises 18:44:51 0° 203° (SSW) 2,838 5.0 -14.4°
Reaches altitude 10° 18:47:31 10° 221° (SW) 1,941 4.4 -14.8°
Maximum altitude 18:50:37 20° 268° (W) 1,418 4.3 -15.3°
Drops below altitude 10° 18:53:43 10° 316° (NW) 1,944 5.2 -15.8°
Sets 18:56:24 0° 334° (NNW) 2,843 5.7 -16.2°
